EHI
0 0 0 0 0 0 0 0 0 0 0 0 0 0 0 0 0 0 0 0 0 0 0 0 0 0 0 0 0 0 0 0 0 0 0 0 0 0 0 0 0 0 0 0
0 0 0 0 0 0 0 0 0 0 0 0 0 0 0 0 0 0 0 0 0 0 0 0 0 0 0 0 0 0 0 0 0 0 0 0 0 0 0 0 0 0 0 0
0 0 0 0 0 0 0 0 0 0 0 0 0 0 0 0 0 0 0 0 0 0 0 0 0 0 0 0 0 0 0 0 0 0 0 0 0 0 0 0 0 0 0 0
0 0 0 0 0 0 0 0 0 0 0 0 0 0 0 0 0 0 0 0 0 0 0 0 0 0 0 0 0 0 0 0 0 0 0 0 0 0 0 0 0 0 0 0
0 0 0 0 0 0 0 0 0 0 0 0 0 0 0 0 0 0 0 0 0 0 0 0 0 0 0 0 0 0 0 0 0 0 0 0 0 0 0 0 0 0 0 0
0 0 0 0 0 0 0 0 0 0 0 0 0 0 0 0 0 0 0 0 0 0 0 0 0 0 0 0 0 0 0 0 0 0 0 0 0 0 0 0 0 0 0 0
0 0 0 0 0 0 0 0 0 0 0 0 0 0 0 0 0 0 0 0 0 0 0 0 0 0 0 0 0 0 0 0 0 0 0 0 0 0 0 0 0 0 0 0
0 0 0 0 0 0 0 0 0 0 0 0 0 0 0 0 0 0 0 0 0 0 0 0 0 0 0 0 0 0 0 0 0 0 0 0 0 0 0 0 0 0 0 0
0 0 0 0 0 0 0 0 0 0 0 0 0 0 0 0 0 0 0 0 0 0 0 0 0 0 0 0 0 0 0 0 0 0 0 0 0 0 0 0 0 0 0 0
0 0 0 0 0 0 0 0 0 0 0 0 0 0 0 0 0 0 0 0 0 0 0 0 0 0 0 0 0 0 0 0 0 0 0 0 0 0 0 0 0 0 0 0
0 0 0 0 0 0 0 0 0 0 0 0 0 0 0 0 0 0 0 0 0 0 0 0 0 0 0 0 0 0 0 0 0 0 0 0 0 0 0 0 0 0 0 0
0 0 0 0 0 0 0 0 0 0 0 0 0 0 0 0 0 0 0 0 0 0 0 0 0 0 0 0 0 0 0 0 0 0 0 0 0 0 0 0 0 0 0 0
0 0 0 0 0 0 0 0 0 0 0 0 0 0 0 0 0 0 0 0 0 0 0 0 0 0 0 0 0 0 0 0 0 0 0 0 0 0 0 0 0 0 0 0
0 0 0 0 0 0 0 0 0 0 0 0 0 0 0 0 0 0 0 0 0 0 0 0 0 0 0 0 0 0 0 0 0 0 0 0 0 0 0 0 0 0 0 0
0 0 0 0 0 0 0 0 0 0 0 0 0 0 0 0 0 0 0 0 0 0 0 0 0 0 0 0 0 0 0 0 0 0 0 0 0 0 0 0 0 0 0 0
0 0 0 0 0 0 0 0 0 0 0 0 0 0 0 0 0 0 0 0 0 0 0 0 0 0 0 0 0 0 0 0 0 0 0 0 0 0 0 0 0 0 0 0
0 0 0 0 0 0 0 0 0 0 0 0 0 0 0 0 0 0 0 0 0 0 0 0 0 0 0 0 0 0 0 0 0 0 0 0 0 0 0 0 0 0 0 0
0 0 0 0 0 0 0 0 0 0 0 0 0 0 0 0 0 0 0 0 0 0 0 0 0 0 0 0 0 0 0 0 0 0 0 0 0 0 0 0 0 0 0 0
0 0 0 0 0 0 0 0 0 0 0 0 0 0 0 0 0 0 0 0 0 0 0 0 0 0 0 0 0 0 0 0 0 0 0 0 0 0 0 0 0 0 0 0
0 0 0 0 0 0 0 0 0 0 0 0 0 0 0 0 0 0 0 0 0 0 0 0 0 0 0 0 0 0 0 0 0 0 0 0 0 0 0 0 0 0 0 0
0 0 0 0 0 0 0 0 0 0 0 0 0 0 0 0 0 0 0 0 0 0 0 0 0 0 0 0 0 0 0 0 0 0 0 0 0 0 0 0 0 0 0 0
0 0 0 0 0 0 0 0 0 0 0 0 0 0 0 0 0 0 0 0 0 0 0 0 0 0 0 0 0 0 0 0 0 0 0 0 0 0 0 0 0 0 0 0
0 0 0 0 0 0 0 0 0 0 0 0 0 0 0 0 0 0 0 0 0 0 0 0 0 0 0 0 0 0 0 0 0 0 0 0 0 0 0 0 0 0 0 0
0 0 0 0 0 0 0 0 0 0 0 0 0 0 0 0 0 0 0 0 0 0 0 0 0 0 0 0 0 0 0 0 0 0 0 0 0 0 0 0 0 0 0 0
0 0 0 0 0 0 0 0 0 0 0 0 0 0 0 0 0 0 0 0 0 0 0 0 0 0 0 0 0 0 0 0 0 0 0 0 0 0 0 0 0 0 0 0
0 0 0 0 0 0 0 0 0 0 0 0 0 0 0 0 0 0 0 0 0 0 0 0 0 0 0 0 0 0 0 0 0 0 0 0 0 0 0 0 0 0 0 0
Wind_Speed
2 1 1 2 2 2 2 4 6 4 2 5 9 12 10 5 5 6 5 5 5 5 4 3 3 3 3 3 2 2 3 3 2 2 2 2 2 1 2 2 2 2 2 2
2 1 1 1 2 3 3 5 5 3 1 5 9 12 7 3 4 4 4 4 4 4 3 3 3 3 3 3 3 3 3 3 3 2 3 2 2 2 2 2 3 3 3 3
2 1 0 2 2 4 4 5 5 5 4 3 8 8 4 2 2 2 2 3 3 3 4 3 3 3 3 3 3 3 3 3 3 3 2 2 3 3 2 3 3 3 3 3
1 0 1 2 2 3 4 2 5 5 5 3 3 6 2 1 2 2 2 2 3 3 4 3 4 4 4 3 3 3 3 3 3 3 2 3 3 3 4 3 3 4 4 4
1 0 0 2 2 3 2 1 3 5 5 5 4 6 4 0 3 4 3 3 4 4 3 4 4 4 4 3 2 3 3 3 3 3 3 4 4 4 3 4 5 5 4 5
1 0 2 2 1 1 0 1 1 2 4 6 4 6 5 1 3 4 3 4 4 4 4 4 4 3 3 2 2 2 2 3 3 3 3 4 4 5 5 5 5 4 4 5
1 1 1 1 1 2 1 1 2 2 4 4 2 6 6 1 2 3 4 5 5 4 4 4 4 3 3 3 3 3 3 3 3 3 4 4 5 5 6 6 6 5 5 5
3 2 1 1 1 1 2 2 2 4 5 3 3 7 3 2 3 4 4 4 5 5 4 5 4 4 3 3 3 3 3 4 4 5 5 5 5 4 4 6 5 6 5 5
3 2 2 1 2 2 2 2 2 2 2 6 5 5 5 2 3 3 3 4 5 5 5 5 5 4 4 4 4 4 4 4 5 5 5 6 5 5 6 6 6 6 6 6
2 3 1 0 1 2 2 2 3 3 4 7 6 5 3 2 3 3 4 5 6 6 6 6 6 4 4 4 4 5 5 5 6 6 5 5 6 6 6 6 7 7 7 7
2 3 1 2 4 3 3 3 3 3 3 5 6 4 1 3 3 4 4 5 6 6 7 6 6 5 5 5 5 5 5 6 6 6 6 6 6 6 6 6 7 7 7 7
2 2 3 3 1 2 3 4 5 4 4 5 6 5 2 2 2 3 5 6 6 7 6 6 6 6 6 6 6 6 6 6 6 6 7 7 7 6 6 7 7 6 7 6
4 3 3 3 3 2 3 3 4 3 2 5 7 6 2 2 3 4 6 7 6 6 7 6 6 6 6 7 7 7 7 7 7 7 7 7 7 6 7 8 7 6 6 7
3 4 6 8 4 2 5 6 6 6 6 8 11 12 7 7 7 7 7 7 7 6 6 6 7 7 7 7 7 7 7 7 7 7 7 7 7 7 7 8 7 6 6 7
2 5 5 8 7 5 8 9 10 11 11 10 10 11 12 9 8 8 7 7 7 7 7 7 8 8 7 8 7 7 7 7 7 7 7 8 8 7 7 7 6 6 6 7
3 4 3 6 5 5 9 12 12 13 12 14 14 15 10 8 7 7 7 7 7 8 8 8 8 8 8 8 8 8 8 7 7 8 8 8 8 7 7 7 7 6 6 6
4 4 4 5 3 5 10 10 12 9 9 9 12 10 5 6 7 8 8 7 8 8 8 8 9 8 8 8 8 8 8 8 7 8 8 8 8 8 7 7 6 6 6 7
5 5 3 4 3 9 2 2 5 8 8 9 9 8 7 8 9 8 7 7 8 8 8 8 8 8 8 8 8 8 7 7 7 8 8 8 7 8 7 7 7 7 6 6
4 5 3 3 6 9 4 3 4 6 7 7 9 9 8 7 8 6 3 4 6 7 8 7 7 8 8 7 7 7 7 7 7 8 8 8 8 8 7 7 7 7 6 6
1 3 4 4 6 8 2 2 1 3 6 3 6 7 5 4 6 5 3 5 7 7 6 6 7 7 7 7 7 7 7 7 8 8 8 8 8 8 8 8 7 7 6 7
4 4 6 8 8 9 1 3 4 5 3 0 3 5 4 5 6 6 6 7 7 7 7 6 6 6 6 7 6 7 8 8 8 8 8 8 7 7 8 7 6 6 6 7
7 7 7 6 8 8 5 6 7 4 2 1 3 4 5 6 6 7 7 7 7 7 7 6 6 6 6 6 6 7 8 8 8 8 8 8 8 7 6 6 6 6 6 7
7 6 5 8 7 1 7 6 4 2 3 4 4 4 5 6 7 7 7 7 7 7 6 6 6 7 7 6 6 8 8 8 8 8 8 7 7 7 6 6 7 6 6 5
5 3 4 6 9 6 6 7 6 5 6 6 5 5 5 6 6 6 6 6 6 6 6 6 6 7 7 7 7 7 8 8 7 8 7 7 7 7 6 5 5 5 5 5
4 5 5 8 7 6 6 8 8 7 6 6 5 5 5 6 6 6 6 6 6 6 6 6 6 7 8 8 8 8 7 7 7 7 6 6 6 6 6 6 5 6 6 6
5 7 7 7 5 5 6 4 5 5 5 5 4 5 5 5 5 6 6 6 6 6 6 6 7 7 8 8 8 8 7 6 6 6 6 5 5 5 5 6 6 7 8 9
Wind_Direction
39 128 178 206 228 272 245 246 265 286 328 278 268 275 275 273 261 265 267 268 267 266 271 276 284 284 288 292 287 287 295 304 307 293 273 261 248 258 248 248 250 242 253 260
159 187 267 272 223 221 230 252 266 277 308 286 289 280 274 255 247 260 263 264 259 267 278 287 285 286 288 284 291 293 294 295 298 294 279 268 272 257 253 254 246 242 247 254
188 70 239 212 216 233 235 251 267 286 307 253 295 266 226 208 222 257 270 281 278 272 276 278 276 280 282 281 287 288 292 297 297 292 281 271 251 248 248 252 251 246 248 249
122 101 225 227 243 260 254 252 267 275 283 275 301 283 224 221 259 279 291 303 312 299 292 289 287 287 284 280 286 284 287 290 288 284 277 264 260 262 265 263 260 255 250 250
133 106 260 252 298 276 303 326 267 262 255 267 229 262 270 13 283 300 311 321 323 320 305 296 292 282 279 281 288 285 284 291 292 287 281 271 267 264 268 265 258 253 247 245
81 48 329 325 335 250 190 232 184 198 228 248 224 244 273 235 286 310 328 337 337 335 329 309 303 287 279 282 286 285 279 286 287 286 279 271 274 275 274 272 262 254 250 244
216 163 76 336 235 164 251 265 281 252 228 245 137 241 261 330 321 312 314 327 336 336 331 322 319 304 287 286 291 286 286 287 288 286 277 277 278 275 269 270 265 257 253 250
261 238 137 16 305 256 224 248 250 272 279 287 201 245 263 6 329 314 308 314 329 338 337 331 320 312 305 305 306 300 296 294 295 289 286 283 279 275 274 266 264 257 255 255
252 258 90 53 353 268 191 201 335 275 284 270 251 264 278 301 313 323 321 328 333 336 335 330 323 314 311 308 302 297 294 296 301 301 298 286 279 275 276 275 262 260 257 257
252 259 214 145 196 53 333 154 181 214 258 267 265 260 269 293 308 331 329 324 328 332 329 328 323 317 314 308 306 304 299 301 301 301 300 295 288 283 280 278 265 259 259 256
231 233 227 206 214 214 169 177 216 222 259 266 278 272 88 244 275 296 308 317 321 322 323 324 325 320 317 314 310 308 305 303 304 305 299 293 289 289 286 282 271 262 259 254
190 230 252 232 69 341 239 220 202 228 230 240 270 278 72 272 296 298 309 318 320 317 318 318 318 322 323 321 321 315 308 304 304 301 296 292 291 294 291 286 281 272 262 257
167 194 264 220 181 176 229 226 228 241 236 228 244 263 83 322 313 311 311 313 315 315 315 316 317 319 320 320 319 314 310 307 305 300 296 296 296 296 292 290 287 279 270 263
184 217 236 261 293 190 224 224 215 210 228 240 243 266 282 294 303 312 313 309 310 312 312 315 316 315 315 316 314 312 311 310 308 303 298 296 296 295 292 289 287 280 274 267
200 237 241 264 275 258 251 241 219 218 232 245 258 261 277 292 300 304 307 308 310 311 313 313 313 313 315 314 311 310 309 311 310 304 299 300 301 296 292 291 289 281 276 271
204 237 242 260 245 252 262 250 233 231 238 247 262 271 281 286 297 301 302 303 302 305 308 311 311 311 312 311 310 308 308 309 308 304 303 305 302 298 296 296 295 290 281 275
189 197 230 259 272 280 258 237 213 210 217 222 239 258 302 295 289 294 300 301 299 302 307 309 309 309 309 309 309 307 306 308 306 303 302 303 301 299 298 298 297 293 289 281
185 191 226 271 270 249 257 82 194 212 231 224 246 270 282 287 295 290 287 292 297 302 306 307 307 307 308 308 306 304 304 303 303 302 302 302 301 300 301 299 295 291 288 283
214 199 214 234 256 269 273 194 185 213 256 225 237 262 284 306 298 272 267 287 293 299 302 302 304 304 306 307 308 306 304 305 304 303 304 305 303 300 298 296 295 293 290 285
134 213 219 215 244 255 276 117 167 196 259 209 223 255 280 303 289 309 344 310 305 306 307 308 309 307 306 309 309 304 304 305 304 305 306 305 302 297 294 293 293 292 289 286
173 194 215 225 241 263 285 144 164 215 274 39 227 247 249 250 276 312 314 308 307 307 310 312 309 305 305 309 308 302 303 303 305 305 303 302 299 295 291 291 292 293 292 290
187 187 200 202 224 248 143 154 200 250 346 275 259 254 254 268 286 296 300 303 307 308 311 313 310 307 309 311 305 300 301 304 306 305 303 301 300 297 294 293 294 293 290 287
213 207 201 206 225 299 168 201 233 292 275 276 276 268 260 272 279 289 294 298 300 303 306 309 307 307 310 310 303 297 302 307 306 304 302 302 302 300 298 295 295 293 288 283
225 223 226 245 258 259 238 244 255 256 263 278 276 269 259 265 275 285 290 292 296 299 301 304 304 305 307 310 306 300 303 305 301 301 303 303 302 302 301 295 291 288 286 283
224 190 221 252 271 286 255 243 256 265 269 272 275 266 257 260 271 278 285 289 292 296 298 297 296 298 302 307 306 307 306 303 300 299 300 301 300 301 300 296 293 291 284 286
205 202 210 244 244 243 269 274 270 257 257 258 265 274 270 258 265 276 281 284 289 293 297 297 297 299 302 306 306 308 306 299 296 298 300 299 299 298 297 298 296 293 292 299